Regional Weather Roundup
Issued by NWS

Home | Current Version | Previous Version | Graphics & Text | Print | Product List | Glossary On
Versions: 1 2 3 4 5 6 7 8 9 10 11 12 13 14 15 16 17 18 19 20 21 22 23 24 25 26 27 28 29 30 31 32 33 34 35 36 37 38 39 40 41 42 43 44 45 46 47 48 49 50
000
ASUS43 KTOP 260908
RWRKS

WEATHER ROUNDUP FOR KANSAS
NATIONAL WEATHER SERVICE GOODLAND KS
400 AM CDT TUE SEP 26 2017

NOTE:  "FAIR" INDICATES FEW OR NO CLOUDS BELOW 12,000 FEET WITH NO
SIGNIFICANT WEATHER AND/OR OBSTRUCTIONS TO VISIBILITY.

KSZ001>006-013>018-027>032-041>047-261000-
NORTHWEST KANSAS

CITY           SKY/WX    TMP DP  RH WIND       PRES   REMARKS
GOODLAND       CLOUDY    46  46 100 N8        30.13S FOG
HAYS           CLOUDY    51  50  96 N15       30.09S
HILL CITY      CLOUDY    51  49  92 N9        30.11S
RUSSELL        CLOUDY    52  50  93 N14       30.07R
$$

KSZ061>065-074>080-084>089-261000-
SOUTHWEST KANSAS

CITY           SKY/WX    TMP DP  RH WIND       PRES   REMARKS
DODGE CITY     CLOUDY    52  51  97 N16       30.09S
ELKHART          N/A     50  52 100 N7          N/A
GARDEN CITY    CLOUDY    50  48  93 N14       30.10S
GREAT BEND     CLOUDY    52  52 100 N14       30.07R
LIBERAL        CLOUDY    53  51  93 N13       30.10R
PRATT          CLOUDY    55  53  93 N10       30.06R
$$

KSZ066>073-081>083-090>101-261000-
SOUTHEAST KANSAS

CITY           SKY/WX    TMP DP  RH WIND       PRES   REMARKS
CHANUTE        RAIN      67  65  93 N6        29.96S FOG
COFFEYVILLE    CLOUDY    69  65  86 NW7       29.94R
HUTCHINSON     CLOUDY    58  58 100 N9        30.02S
MEDICINE LODGE   N/A     57  55  93 N12       30.02R
NEWTON         CLOUDY    59  58  96 NW13      30.01S
PARSONS        CLOUDY    68  65  90 NW7       29.96F
WICHITA INTL   CLOUDY    61  61 100 NW15      30.00R
WICHITA JABRA  CLOUDY    62  62 100 N9        30.00R
WICHITA MCCONL CLOUDY    62  60  93 N13       30.00R
WINFIELD       CLOUDY    65  65 100 N9        29.99S
$$

KSZ007>012-019>026-033>040-048>060-102>105-261000-
NORTHEAST KANSAS

CITY           SKY/WX    TMP DP  RH WIND       PRES   REMARKS
CONCORDIA      CLOUDY    54  54 100 NW10      30.04R
EMPORIA        LGT RAIN  65  64  97 CALM      29.98R
LAWRENCE       CLOUDY    66  66 100 NW3       29.95S
MANHATTAN      CLOUDY    61  60  97 VRB5      29.99R
MARYSVILLE     CLOUDY    55  55 100 N10       30.00S
OLATHE IND     CLOUDY    65  65 100 N3        29.96R
OLATHE EXE     LGT RAIN  65  65 100 CALM      29.96R
SALINA         CLOUDY    58  56  93 NW12      30.03S
TOPEKA BILLARD CLOUDY    67  67 100 CALM      29.95F
TOPEKA FORBES  LGT RAIN  67  66  97 NW3       29.96S
$$



USA.gov is the U.S. government's official web portal to all federal, state and local government web resources and services.